カタログに戻る

THOR ABLESTAR DEB

運用中LEO
NORAD 335·DEBRIS·🇺🇸 United States

打ち上げ Jun 29, 1961 から Cape Canaveral Space Force Station

Loading…

次のパス (今後24時間)

TLE

最新Source: Space-Track

元期: Sep 13, 2026, 07:59 UTC

1   335U 61015DM  26256.33285957  .00000581  00000-0  29234-3 0  9994
2   335  66.8371 262.9579 0030697 109.8370 250.6039 14.23087852339850

AllMySatでTHOR ABLESTAR DEBをリアルタイム追跡

Download on the App Store